Miscellaneous Local Product
Issued by NWS Hastings, NE

Home | Current Version | Previous Version | Graphics & Text | Print | Product List | Glossary On
Versions: 1 2 3 4 5 6 7 8 9 10 11 12 13 14 15 16 17 18 19 20 21 22 23 24 25 26 27 28 29 30 31 32 33 34 35 36 37 38 39 40 41 42 43 44 45 46 47 48 49 50
000
AXUS43 KGID 300402
MISGRI

GID CWA HOURLY WEATHER ROUNDUP
NATIONAL WEATHER SERVICE HASTINGS NE
1100 PM CDT FRI APR 29 2016

NOTE: "FAIR" INDICATES FEW OR NO CLOUDS BELOW 12,000 FEET WITH NO
SIGNIFICANT WEATHER AND/OR OBSTRUCTIONS TO VISIBILITY.

...SOUTH CENTRAL NEBRASKA...

CITY           SKY/WX    TMP DP  RH WIND       PRES   REMARKS
GRAND ISLAND   CLOUDY    43  41  93 NE20G29   29.89F
HASTINGS       HVY RAIN  43  41  93 NE24G33   29.83F FOG
KEARNEY        CLOUDY    43  39  87 NE24G32   29.83F
ORD            LGT RAIN  41  40  96 NE14      29.92F
YORK           CLOUDY    45  43  93 E18       29.88S
AURORA         CLOUDY    44  43  95 NE21G30   29.88S
LEXINGTON      RAIN      41  39  91 E6        29.90R
HOLDREGE       HVY RAIN  41  40  95 E12G21    29.88R
HEBRON         CLOUDY    48  44  88 E23       29.82S

...NEBRASKA PANHANDLE...

CITY           SKY/WX    TMP DP  RH WIND       PRES   REMARKS
CHADRON        LGT RAIN  38  36  92 NE10      30.00R FOG     WCI  31
ALLIANCE       LGT SNOW  32  32 100 NE8       29.94S VSB 3/4 WCI  25
SCOTTSBLUFF    LGT SNOW  33  32  96 NW5       29.95S FOG     WCI  29
SIDNEY         LGT SNOW  33  31  92 N13       29.91S FOG     WCI  24

...WESTERN AND NORTH CENTRAL NEBRASKA...

CITY           SKY/WX    TMP DP  RH WIND       PRES   REMARKS
VALENTINE      CLOUDY    39  37  92 E15       30.00S WCI  31
AINSWORTH      CLOUDY    39  39  98 NE13G18   29.98F FOG     WCI  32
ONEILL         CLOUDY    42  39  88 NE13      30.00F
BROKEN BOW     LGT RAIN  40  38  93 NE21G29   29.89R WCI  30
IMPERIAL       LGT SNOW  33  32  96 NE14      29.88F FOG     WCI  23
NORTH PLATTE   HVY RAIN  38  36  92 NE13      29.91R FOG     WCI  30
MCCOOK         RAIN      38  35  89 NE12      29.89S FOG     WCI  30

...EASTERN NEBRASKA...

CITY           SKY/WX    TMP DP  RH WIND       PRES   REMARKS
NORFOLK        CLOUDY    43  38  82 NE17G23   29.97S
SO SIOUX CITY  CLOUDY    47  39  74 E8        30.01F
TEKAMAH        CLOUDY    47  41  80 NE16      29.97F
COLUMBUS       CLOUDY    45  36  70 NE17G24   29.94S
ALBION         CLOUDY    43  39  87 NE14G21   29.96S
OMAHA EPPLEY   LGT RAIN  47  42  83 NE15G21   29.94F
OFFUTT AFB     CLOUDY    48  43  84 NE15G25   29.90F
MILLARD        CLOUDY    48  42  78 E10       29.93F
LINCOLN        CLOUDY    48  42  80 NE22      29.90S
NEBRASKA CITY  CLOUDY    48  44  85 E20G28    29.88F
BEATRICE       CLOUDY    48  44  88 E17G26    29.84F
FALLS CITY     CLOUDY    50  46  86 E18G26    29.84F

...NORTHERN KANSAS...

CITY           SKY/WX    TMP DP  RH WIND       PRES   REMARKS
GOODLAND       CLOUDY    32  32 100 N8        29.84S FOG     WCI  25
HILL CITY      LGT RAIN  42  40  92 N13       29.84F
NORTON         RAIN      39  36  87 N10       29.85  WCI  32
PHILLIPSBURG   LGT RAIN  45  45 100 NW10      29.85F
SMITH CENTER   RAIN      43  43 100 NW7       29.84F
BELOIT         CLOUDY    46  45  93 NE8       29.78F
HAYS           CLOUDY    45  37  76 N14       29.80F
RUSSELL        LGT RAIN  46  46 100 NW13      29.78F FOG
CONCORDIA      LGT RAIN  48  46  93 E14G24    29.76F
SALINA         CLOUDY    53  51  93 E8        29.74F
TOPEKA         LGT RAIN  52  50  93 NE15      29.78F



USA.gov is the U.S. government's official web portal to all federal, state and local government web resources and services.